Location: High Point State Park
(41.2941°N, 74.6906°W)
Time: 13:54:49
(UTC-04:00)

HST - Visible Passes

Search period start: 23 July 2014 00:00
Search period end: 02 August 2014 00:00
Orbit: 548 x 552 km, 28.5° (Epoch: 22 July)

Date Brightness Start Highest point End Pass type
(mag) Time Alt. Az. Time Alt. Az. Time Alt. Az.
23 Jul 2.8 21:12:34 10° SSW 21:14:47 14° S 21:16:56 10° SSE visible
24 Jul 2.9 21:05:40 10° SW 21:07:49 14° S 21:09:59 10° SSE visible
25 Jul 3.0 20:58:52 10° SW 21:00:51 13° S 21:02:50 10° SSE visible
26 Jul 3.0 20:52:14 10° SSW 20:53:52 12° S 20:55:31 10° SSE visible
